Time,TemperatureF,DewpointF,PressureIn,WindDirection,WindDirectionDegrees,WindSpeedMPH,WindSpeedGustMPH,Humidity,HourlyPrecipIn,Conditions,Clouds,dailyrainin,SoftwareType,DateUTC
2013-04-25 00:02:00,44.8,44.8,30.27,North,350,0.0,9.6,100,0.00,,,-99.99,VWS V12.07,2013-04-25 04:02:00,
2013-04-25 00:05:00,44.9,44.9,30.27,North,350,0.0,9.6,100,0.00,,,-99.99,VWS V12.07,2013-04-25 04:05:00,
2013-04-25 00:12:00,44.4,44.4,30.28,NNW,342,0.0,9.6,100,0.00,,,-99.99,VWS V12.07,2013-04-25 04:12:00,
2013-04-25 00:22:00,44.2,44.2,30.28,NE,46,3.4,8.6,100,0.00,,,-99.99,VWS V12.07,2013-04-25 04:22:00,
2013-04-25 00:32:00,43.8,43.8,30.28,ENE,62,5.4,10.3,100,0.00,,,-99.99,VWS V12.07,2013-04-25 04:32:00,
2013-04-25 00:35:00,43.5,43.5,30.28,West,269,4.2,10.3,100,0.00,,,-99.99,VWS V12.07,2013-04-25 04:35:00,
2013-04-25 00:42:00,43.3,43.3,30.27,WSW,243,0.0,6.2,100,0.00,,,-99.99,VWS V12.07,2013-04-25 04:42:00,
2013-04-25 00:52:00,42.9,42.9,30.27,WNW,298,0.0,13.9,100,0.00,,,-99.99,VWS V12.07,2013-04-25 04:52:00,
2013-04-25 01:02:00,42.9,42.9,30.27,North,10,0.0,6.1,100,0.00,,,-99.99,VWS V12.07,2013-04-25 05:02:00,
2013-04-25 01:12:00,43.0,43.0,30.28,WNW,287,0.0,6.7,100,0.00,,,-99.99,VWS V12.07,2013-04-25 05:12:00,
2013-04-25 01:22:00,43.2,43.2,30.28,WNW,287,0.0,0.0,100,0.00,,,-99.99,VWS V12.07,2013-04-25 05:22:00,
2013-04-25 01:32:00,43.4,43.4,30.28,NW,322,0.0,5.6,100,0.00,,,-99.99,VWS V12.07,2013-04-25 05:32:00,
2013-04-25 01:42:00,43.1,43.1,30.28,WNW,298,0.0,5.4,100,0.00,,,-99.99,VWS V12.07,2013-04-25 05:42:00,
2013-04-25 01:52:00,42.7,42.7,30.27,NW,316,0.0,8.8,100,0.00,,,-99.99,VWS V12.07,2013-04-25 05:52:00,
2013-04-25 02:02:00,42.5,42.5,30.27,NNW,339,4.8,13.0,100,0.00,,,-99.99,VWS V12.07,2013-04-25 06:02:00,
2013-04-25 02:12:00,41.9,41.9,30.27,WNW,295,5.5,13.0,100,0.00,,,-99.99,VWS V12.07,2013-04-25 06:12:00,
2013-04-25 02:22:00,41.9,41.9,30.27,WNW,297,4.2,11.6,100,0.00,,,-99.99,VWS V12.07,2013-04-25 06:22:00,
2013-04-25 02:32:00,41.7,41.7,30.27,West,266,0.0,11.6,100,0.00,,,-99.99,VWS V12.07,2013-04-25 06:32:00,
2013-04-25 02:42:00,41.6,41.6,30.27,NW,315,3.4,9.9,100,0.00,,,-99.99,VWS V12.07,2013-04-25 06:42:00,
2013-04-25 02:52:00,41.4,41.4,30.27,West,266,5.4,9.9,100,0.00,,,-99.99,VWS V12.07,2013-04-25 06:52:00,
2013-04-25 03:02:00,41.1,41.1,30.27,WSW,250,0.0,4.5,100,0.00,,,-99.99,VWS V12.07,2013-04-25 07:02:00,
2013-04-25 03:12:00,40.9,40.9,30.27,SW,217,0.0,5.7,100,0.00,,,-99.99,VWS V12.07,2013-04-25 07:12:00,
2013-04-25 03:22:00,40.8,40.8,30.28,WNW,284,4.6,9.4,100,0.00,,,-99.99,VWS V12.07,2013-04-25 07:22:00,
2013-04-25 03:32:00,40.7,40.7,30.28,SSW,193,4.7,10.1,100,0.00,,,-99.99,VWS V12.07,2013-04-25 07:32:00,
2013-04-25 03:42:00,40.7,40.7,30.27,WSW,238,0.0,5.3,100,0.00,,,-99.99,VWS V12.07,2013-04-25 07:42:00,
2013-04-25 03:52:00,40.7,40.7,30.28,WNW,288,3.0,8.2,100,0.00,,,-99.99,VWS V12.07,2013-04-25 07:52:00,
2013-04-25 04:02:00,40.4,40.4,30.28,WNW,294,0.0,8.5,100,0.00,,,-99.99,VWS V12.07,2013-04-25 08:02:00,
2013-04-25 04:12:00,39.9,39.9,30.28,West,260,3.1,10.0,100,0.00,,,-99.99,VWS V12.07,2013-04-25 08:12:00,
2013-04-25 04:22:00,39.5,39.5,30.27,NW,311,0.0,6.6,100,0.00,,,-99.99,VWS V12.07,2013-04-25 08:22:00,
2013-04-25 04:32:00,39.3,39.3,30.27,SW,225,0.0,9.9,100,0.00,,,-99.99,VWS V12.07,2013-04-25 08:32:00,
2013-04-25 04:42:00,39.5,39.5,30.27,WNW,302,0.0,0.0,100,0.00,,,-99.99,VWS V12.07,2013-04-25 08:42:00,
2013-04-25 04:52:00,39.9,39.9,30.27,West,262,0.0,5.9,100,0.00,,,-99.99,VWS V12.07,2013-04-25 08:52:00,
2013-04-25 05:02:00,39.9,39.9,30.27,West,278,3.3,6.3,100,0.00,,,-99.99,VWS V12.07,2013-04-25 09:02:00,
2013-04-25 05:12:00,39.8,39.8,30.28,WNW,285,0.0,6.3,100,0.00,,,-99.99,VWS V12.07,2013-04-25 09:12:00,
2013-04-25 05:22:00,39.7,39.7,30.28,West,259,0.0,6.8,100,0.00,,,-99.99,VWS V12.07,2013-04-25 09:22:00,
2013-04-25 05:32:00,39.4,39.4,30.29,West,270,0.0,9.0,100,0.00,,,-99.99,VWS V12.07,2013-04-25 09:32:00,
2013-04-25 05:42:00,39.2,39.2,30.29,West,278,0.0,0.0,100,0.00,,,-99.99,VWS V12.07,2013-04-25 09:42:00,
2013-04-25 05:52:00,38.7,38.7,30.29,NW,322,0.0,6.7,100,0.00,,,-99.99,VWS V12.07,2013-04-25 09:52:00,
2013-04-25 06:02:00,38.7,38.7,30.29,NW,322,0.0,0.0,100,0.00,,,-99.99,VWS V12.07,2013-04-25 10:02:00,
2013-04-25 06:12:00,38.9,38.9,30.30,West,264,3.0,6.7,100,0.00,,,-99.99,VWS V12.07,2013-04-25 10:12:00,
2013-04-25 06:22:00,38.9,38.9,30.30,WNW,295,0.0,4.2,100,0.00,,,-99.99,VWS V12.07,2013-04-25 10:22:00,
2013-04-25 06:32:00,38.5,38.5,30.29,WNW,295,0.0,4.2,100,0.00,,,-99.99,VWS V12.07,2013-04-25 10:32:00,
2013-04-25 06:42:00,38.3,38.3,30.29,WNW,295,0.0,0.0,100,0.00,,,-99.99,VWS V12.07,2013-04-25 10:42:00,
2013-04-25 06:52:00,38.1,38.1,30.30,WNW,295,0.0,0.0,100,0.00,,,-99.99,VWS V12.07,2013-04-25 10:52:00,
2013-04-25 07:02:00,38.3,38.3,30.30,WNW,295,0.0,0.0,100,0.00,,,-99.99,VWS V12.07,2013-04-25 11:02:00,
2013-04-25 07:12:00,38.3,38.3,30.30,WNW,295,0.0,0.0,100,0.00,,,-99.99,VWS V12.07,2013-04-25 11:12:00,
2013-04-25 07:22:00,38.2,38.2,30.31,WNW,295,0.0,0.0,100,0.00,,,-99.99,VWS V12.07,2013-04-25 11:22:00,
2013-04-25 07:32:00,38.2,38.2,30.31,WNW,295,0.0,0.0,100,0.00,,,-99.99,VWS V12.07,2013-04-25 11:32:00,
2013-04-25 07:42:00,37.9,37.9,30.31,West,269,0.0,0.0,100,0.00,,,-99.99,VWS V12.07,2013-04-25 11:42:00,
2013-04-25 07:52:00,38.0,38.0,30.31,West,269,0.0,0.0,100,0.00,,,-99.99,VWS V12.07,2013-04-25 11:52:00,
2013-04-25 08:02:00,38.1,38.1,30.31,West,269,0.0,0.0,100,0.00,,,-99.99,VWS V12.07,2013-04-25 12:02:00,
2013-04-25 08:12:00,38.2,38.2,30.31,West,269,0.0,0.0,100,0.00,,,-99.99,VWS V12.07,2013-04-25 12:12:00,
2013-04-25 08:22:00,38.4,38.3,30.31,West,269,0.0,0.0,100,0.00,,,-99.99,VWS V12.07,2013-04-25 12:22:00,
2013-04-25 08:32:00,38.6,38.5,30.31,West,269,0.0,0.0,100,0.00,,,-99.99,VWS V12.07,2013-04-25 12:32:00,
2013-04-25 08:42:00,39.3,39.1,30.32,West,269,0.0,0.0,99,0.00,,,-99.99,VWS V12.07,2013-04-25 12:42:00,
2013-04-25 08:52:00,40.2,39.4,30.33,West,269,0.0,0.0,97,0.00,,,-99.99,VWS V12.07,2013-04-25 12:52:00,
2013-04-25 09:06:00,41.5,41.1,30.33,East,83,5.0,6.7,98,0.00,,,-99.99,VWS V12.07,2013-04-25 13:06:00,
2013-04-25 09:12:00,41.8,41.5,30.33,East,96,5.7,7.3,99,0.00,,,-99.99,VWS V12.07,2013-04-25 13:12:00,
2013-04-25 09:26:00,41.8,41.3,30.33,NNE,25,0.0,5.3,98,0.00,,,-99.99,VWS V12.07,2013-04-25 13:26:00,
2013-04-25 09:34:00,41.7,41.4,30.33,ENE,66,4.6,7.5,99,0.00,,,-99.99,VWS V12.07,2013-04-25 13:34:00,
2013-04-25 09:43:00,42.1,41.8,30.33,ENE,77,3.4,8.0,99,0.00,,,-99.99,VWS V12.07,2013-04-25 13:43:00,
2013-04-25 09:52:00,42.3,41.8,30.34,ENE,73,0.0,9.0,98,0.00,,,-99.99,VWS V12.07,2013-04-25 13:52:00,
2013-04-25 10:02:00,42.7,42.1,30.35,ESE,114,3.4,6.4,98,0.00,,,-99.99,VWS V12.07,2013-04-25 14:02:00,
2013-04-25 10:12:00,43.0,42.0,30.36,NE,56,0.0,7.5,96,0.00,,,-99.99,VWS V12.07,2013-04-25 14:12:00,
2013-04-25 10:22:00,43.8,42.9,30.35,ESE,105,4.2,6.3,97,0.00,,,-99.99,VWS V12.07,2013-04-25 14:22:00,
2013-04-25 10:32:00,44.4,43.2,30.37,NE,48,5.0,8.1,96,0.00,,,-99.99,VWS V12.07,2013-04-25 14:32:00,
2013-04-25 10:42:00,44.9,43.6,30.37,ESE,103,4.2,9.4,95,0.00,,,-99.99,VWS V12.07,2013-04-25 14:42:00,
2013-04-25 10:52:00,45.6,44.4,30.38,SE,138,4.4,10.4,95,0.00,,,-99.99,VWS V12.07,2013-04-25 14:52:00,
2013-04-25 11:02:00,46.2,44.7,30.38,ESE,121,5.7,6.9,94,0.00,,,-99.99,VWS V12.07,2013-04-25 15:02:00,
2013-04-25 11:12:00,46.6,45.0,30.39,ENE,62,4.6,10.4,94,0.00,,,-99.99,VWS V12.07,2013-04-25 15:12:00,
2013-04-25 11:22:00,46.9,45.2,30.39,ENE,73,6.3,10.2,94,0.00,,,-99.99,VWS V12.07,2013-04-25 15:22:00,
2013-04-25 11:32:00,47.2,45.6,30.39,ESE,104,8.0,11.2,94,0.00,,,-99.99,VWS V12.07,2013-04-25 15:32:00,
2013-04-25 11:42:00,47.1,45.4,30.39,East,91,2.4,8.7,94,0.00,,,-99.99,VWS V12.07,2013-04-25 15:42:00,
2013-04-25 11:52:00,47.5,45.8,30.40,ESE,107,8.4,10.2,94,0.00,,,-99.99,VWS V12.07,2013-04-25 15:52:00,
2013-04-25 12:02:00,48.1,46.3,30.40,East,101,8.9,9.4,94,0.00,,,-99.99,VWS V12.07,2013-04-25 16:02:00,
2013-04-25 12:17:00,48.4,46.2,30.40,East,101,0.0,9.8,92,0.00,,,-99.99,VWS V12.07,2013-04-25 16:17:00,
2013-04-25 12:22:00,48.6,46.4,30.40,East,101,3.2,6.6,92,0.00,,,-99.99,VWS V12.07,2013-04-25 16:22:00,
2013-04-25 12:32:00,49.8,47.5,30.40,ESE,107,6.6,9.5,92,0.00,,,-99.99,VWS V12.07,2013-04-25 16:32:00,
2013-04-25 12:42:00,50.4,47.8,30.40,ESE,104,5.0,6.3,91,0.00,,,-99.99,VWS V12.07,2013-04-25 16:42:00,
2013-04-25 12:52:00,51.2,48.2,30.40,East,89,0.0,7.5,90,0.00,,,-99.99,VWS V12.07,2013-04-25 16:52:00,
2013-04-25 13:02:00,52.1,47.8,30.41,ENE,77,0.0,5.7,85,0.00,,,-99.99,VWS V12.07,2013-04-25 17:02:00,
2013-04-25 13:12:00,52.4,45.4,30.41,East,100,0.0,5.9,77,0.00,,,-99.99,VWS V12.07,2013-04-25 17:12:00,
2013-04-25 13:22:00,53.1,47.3,30.41,ESE,114,5.0,6.5,81,0.00,,,-99.99,VWS V12.07,2013-04-25 17:22:00,
2013-04-25 13:32:00,53.7,44.2,30.40,SSW,193,0.0,7.7,70,0.00,,,-99.99,VWS V12.07,2013-04-25 17:32:00,
2013-04-25 13:42:00,54.4,36.2,30.40,NW,307,4.7,7.1,50,0.00,,,-99.99,VWS V12.07,2013-04-25 17:42:00,
2013-04-25 13:52:00,55.0,37.4,30.40,WNW,285,0.0,7.1,51,0.00,,,-99.99,VWS V12.07,2013-04-25 17:52:00,
2013-04-25 14:02:00,56.0,36.2,30.40,West,273,5.7,6.5,47,0.00,,,-99.99,VWS V12.07,2013-04-25 18:02:00,
2013-04-25 14:12:00,56.6,34.4,30.40,SW,214,0.0,8.9,43,0.00,,,-99.99,VWS V12.07,2013-04-25 18:12:00,
2013-04-25 14:22:00,56.8,32.9,30.41,NNE,32,6.0,13.9,40,0.00,,,-99.99,VWS V12.07,2013-04-25 18:22:00,
2013-04-25 14:32:00,56.3,30.5,30.41,West,281,9.7,14.7,37,0.00,,,-99.99,VWS V12.07,2013-04-25 18:32:00,
2013-04-25 14:42:00,56.2,30.0,30.40,West,269,8.9,14.9,36,0.00,,,-99.99,VWS V12.07,2013-04-25 18:42:00,
2013-04-25 14:52:00,56.6,29.6,30.41,NNW,346,4.5,16.7,35,0.00,,,-99.99,VWS V12.07,2013-04-25 18:52:00,
2013-04-25 15:02:00,57.3,30.5,30.41,WNW,287,3.2,8.9,36,0.00,,,-99.99,VWS V12.07,2013-04-25 19:02:00,
2013-04-25 15:12:00,57.0,32.4,30.41,ENE,60,0.0,13.4,39,0.00,,,-99.99,VWS V12.07,2013-04-25 19:12:00,
2013-04-25 15:22:00,57.1,32.8,30.40,West,263,3.4,8.0,40,0.00,,,-99.99,VWS V12.07,2013-04-25 19:22:00,
2013-04-25 15:32:00,57.4,33.4,30.40,WNW,288,7.8,15.2,40,0.00,,,-99.99,VWS V12.07,2013-04-25 19:32:00,
2013-04-25 15:42:00,57.9,33.5,30.40,NNW,332,6.7,9.5,40,0.00,,,-99.99,VWS V12.07,2013-04-25 19:42:00,
2013-04-25 15:52:00,56.8,33.7,30.40,NE,45,6.5,12.6,42,0.00,,,-99.99,VWS V12.07,2013-04-25 19:52:00,
2013-04-25 16:02:00,56.3,34.5,30.39,NNE,15,3.5,7.3,44,0.00,,,-99.99,VWS V12.07,2013-04-25 20:02:00,
2013-04-25 16:12:00,57.2,33.7,30.39,SSW,208,8.5,11.7,41,0.00,,,-99.99,VWS V12.07,2013-04-25 20:12:00,
2013-04-25 16:22:00,57.1,33.6,30.39,WNW,295,4.7,7.2,41,0.00,,,-99.99,VWS V12.07,2013-04-25 20:22:00,
2013-04-25 16:32:00,58.1,33.5,30.39,NNW,328,10.0,13.0,39,0.00,,,-99.99,VWS V12.07,2013-04-25 20:32:00,
2013-04-25 16:42:00,57.6,34.9,30.39,North,359,6.1,7.0,42,0.00,,,-99.99,VWS V12.07,2013-04-25 20:42:00,
2013-04-25 16:52:00,57.0,35.1,30.39,WNW,290,0.0,7.8,44,0.00,,,-99.99,VWS V12.07,2013-04-25 20:52:00,
2013-04-25 17:02:00,57.2,36.3,30.39,WNW,301,0.0,5.7,45,0.00,,,-99.99,VWS V12.07,2013-04-25 21:02:00,
2013-04-25 17:12:00,57.1,35.9,30.39,NE,37,0.0,11.2,45,0.00,,,-99.99,VWS V12.07,2013-04-25 21:12:00,
2013-04-25 17:22:00,57.7,35.0,30.39,West,259,4.8,13.4,42,0.00,,,-99.99,VWS V12.07,2013-04-25 21:22:00,
2013-04-25 17:32:00,58.9,35.3,30.39,West,269,5.8,13.8,41,0.00,,,-99.99,VWS V12.07,2013-04-25 21:32:00,
2013-04-25 17:42:00,59.1,35.4,30.39,West,273,0.0,6.0,41,0.00,,,-99.99,VWS V12.07,2013-04-25 21:42:00,
2013-04-25 17:52:00,59.3,36.8,30.39,West,278,9.9,14.1,43,0.00,,,-99.99,VWS V12.07,2013-04-25 21:52:00,
2013-04-25 18:02:00,59.3,35.9,30.40,West,281,0.0,6.0,41,0.00,,,-99.99,VWS V12.07,2013-04-25 22:02:00,
2013-04-25 18:12:00,58.5,35.5,30.40,SSW,198,0.0,10.8,42,0.00,,,-99.99,VWS V12.07,2013-04-25 22:12:00,
2013-04-25 18:22:00,58.5,36.7,30.41,WSW,257,5.1,5.5,44,0.00,,,-99.99,VWS V12.07,2013-04-25 22:22:00,
2013-04-25 18:32:00,58.1,34.9,30.41,ESE,108,0.0,9.9,42,0.00,,,-99.99,VWS V12.07,2013-04-25 22:32:00,
2013-04-25 18:42:00,58.0,35.3,30.41,SSW,210,7.0,13.1,42,0.00,,,-99.99,VWS V12.07,2013-04-25 22:42:00,
2013-04-25 18:52:00,58.1,34.6,30.41,WNW,298,9.1,13.1,41,0.00,,,-99.99,VWS V12.07,2013-04-25 22:52:00,
2013-04-25 19:02:00,57.1,34.2,30.41,West,274,8.8,15.2,42,0.00,,,-99.99,VWS V12.07,2013-04-25 23:02:00,
2013-04-25 19:12:00,56.2,34.4,30.41,West,270,8.5,15.7,44,0.00,,,-99.99,VWS V12.07,2013-04-25 23:12:00,
2013-04-25 19:22:00,55.6,33.4,30.41,NW,309,9.1,10.9,43,0.00,,,-99.99,VWS V12.07,2013-04-25 23:22:00,
2013-04-25 19:32:00,54.9,33.8,30.41,NW,308,0.0,10.9,45,0.00,,,-99.99,VWS V12.07,2013-04-25 23:32:00,
2013-04-25 19:42:00,53.5,32.8,30.42,NW,308,5.2,5.7,45,0.00,,,-99.99,VWS V12.07,2013-04-25 23:42:00,
2013-04-25 19:52:00,52.8,32.6,30.42,North,352,0.0,12.9,46,0.00,,,-99.99,VWS V12.07,2013-04-25 23:52:00,
2013-04-25 20:02:00,51.9,32.6,30.42,NW,305,0.0,4.5,48,0.00,,,-99.99,VWS V12.07,2013-04-26 00:02:00,
2013-04-25 20:12:00,51.1,32.6,30.42,WNW,301,0.0,4.5,49,0.00,,,-99.99,VWS V12.07,2013-04-26 00:12:00,
2013-04-25 20:22:00,50.3,32.2,30.42,NW,307,0.0,4.9,50,0.00,,,-99.99,VWS V12.07,2013-04-26 00:22:00,
2013-04-25 20:32:00,49.7,32.6,30.43,West,262,4.4,7.8,52,0.00,,,-99.99,VWS V12.07,2013-04-26 00:32:00,
2013-04-25 20:42:00,48.9,32.7,30.43,NE,34,0.0,5.1,53,0.00,,,-99.99,VWS V12.07,2013-04-26 00:42:00,
2013-04-25 20:52:00,48.3,32.8,30.43,WNW,297,0.0,13.7,55,0.00,,,-99.99,VWS V12.07,2013-04-26 00:52:00,
2013-04-25 21:02:00,48.1,33.2,30.43,NNE,25,0.0,0.0,56,0.00,,,-99.99,VWS V12.07,2013-04-26 01:02:00,
2013-04-25 21:12:00,47.8,33.3,30.43,NW,311,0.0,7.2,57,0.00,,,-99.99,VWS V12.07,2013-04-26 01:12:00,
2013-04-25 21:22:00,47.5,33.4,30.44,WSW,257,0.0,0.0,58,0.00,,,-99.99,VWS V12.07,2013-04-26 01:22:00,
2013-04-25 21:32:00,47.2,33.9,30.45,East,98,0.0,11.1,60,0.00,,,-99.99,VWS V12.07,2013-04-26 01:32:00,
2013-04-25 21:42:00,47.0,33.6,30.45,ENE,70,0.0,6.3,59,0.00,,,-99.99,VWS V12.07,2013-04-26 01:42:00,
2013-04-25 21:52:00,47.0,33.2,30.45,West,263,0.0,13.3,58,0.00,,,-99.99,VWS V12.07,2013-04-26 01:52:00,
2013-04-25 22:02:00,46.9,33.3,30.45,East,96,0.0,0.0,59,0.00,,,-99.99,VWS V12.07,2013-04-26 02:02:00,
2013-04-25 22:12:00,46.6,33.1,30.46,NNE,25,0.0,9.9,59,0.00,,,-99.99,VWS V12.07,2013-04-26 02:12:00,
2013-04-25 22:22:00,46.7,33.0,30.46,ESE,107,0.0,0.0,59,0.00,,,-99.99,VWS V12.07,2013-04-26 02:22:00,
2013-04-25 22:32:00,46.2,33.1,30.46,North,3,0.0,3.4,60,0.00,,,-99.99,VWS V12.07,2013-04-26 02:32:00,
2013-04-25 22:42:00,46.0,33.8,30.46,East,87,0.0,0.0,62,0.00,,,-99.99,VWS V12.07,2013-04-26 02:42:00,
2013-04-25 22:52:00,46.0,33.2,30.47,East,87,0.0,0.0,61,0.00,,,-99.99,VWS V12.07,2013-04-26 02:52:00,
2013-04-25 23:02:00,46.1,33.1,30.47,East,87,0.0,0.0,60,0.00,,,-99.99,VWS V12.07,2013-04-26 03:02:00,
2013-04-25 23:12:00,46.1,32.9,30.47,East,87,0.0,0.0,60,0.00,,,-99.99,VWS V12.07,2013-04-26 03:12:00,
2013-04-25 23:22:00,46.1,33.0,30.47,East,87,0.0,0.0,60,0.00,,,-99.99,VWS V12.07,2013-04-26 03:22:00,
2013-04-25 23:32:00,46.0,32.8,30.47,East,87,0.0,0.0,60,0.00,,,-99.99,VWS V12.07,2013-04-26 03:32:00,
2013-04-25 23:42:00,45.9,32.8,30.47,East,87,0.0,0.0,60,0.00,,,-99.99,VWS V12.07,2013-04-26 03:42:00,
2013-04-25 23:52:00,45.9,32.7,30.47,East,87,0.0,0.0,60,0.00,,,-99.99,VWS V12.07,2013-04-26 03:52:00,